Regional Weather Roundup
Issued by NWS

Home | Current Version | Previous Version | Text Only | Print | Product List | Glossary Off
Versions: 1 2 3 4 5 6 7 8 9 10 11 12 13 14 15 16 17 18 19 20 21 22 23 24 25 26 27 28 29 30 31 32 33 34 35 36 37 38 39 40 41 42 43 44 45 46 47 48 49 50

000
ASUS43 KDMX 210401
RWRIA

WEATHER ROUNDUP FOR IOWA
NATIONAL WEATHER SERVICE DES MOINES IA
1100 PM CDT SUN AUG 20 2017

NOTE: "FAIR" INDICATES FEW OR NO CLOUDS BELOW 12,000 FEET WITH NO
SIGNIFICANT WEATHER AND/OR OBSTRUCTIONS TO VISIBILITY.

* - THESE STATIONS ARE NOT NWS STATIONS...THUS NOT UNDER NWS
QUALITY CONTROL.  THEY ALSO DO NOT REPORT WEATHER SUCH
AS PRECIPITATION OR FOG.

IAZ001>003-012>014-020>022-031>034-043>046-210500-
   NORTHWEST IOWA

CITY           SKY/WX    TMP DP  RH WIND       PRES   REMARKS
CARROLL *      CLOUDY    73  73 100 S3        30.02R
CHEROKEE *     CLOUDY    74  71  89 CALM      30.01R
DENISON *      CLOUDY    73  68  83 E8        29.99F
LE MARS *      CLOUDY   102 N/A N/A NE5       29.99S
ORANGE CITY *  MOCLDY    75  72  88 E8        30.02R
SHELDON *      CLOUDY    70  66  88 NE9       30.01R
SIOUX CITY     PTCLDY    74  69  85 E5        29.98S
SPENCER        CLEAR     72  69  90 NE9       30.02S
STORM LAKE *   CLOUDY    73  68  83 CALM      30.02S
$$

IAZ055>058-069>071-079>083-090>094-210500-
   SOUTHWEST IOWA

CITY           SKY/WX    TMP DP  RH WIND       PRES   REMARKS
ATLANTIC *     CLOUDY    73  64  73 E5        30.00S
AUDUBON *      MOCLDY    72  70  94 CALM      30.03S
CLARINDA *     PTCLDY    70  66  88 SE5       30.05R
COUNCIL BLFS * CLEAR     72  70  94 E6        30.00R
CRESTON *      PTCLDY    64  64 100 SE8       30.06R
HARLAN  *      CLOUDY    73  70  88 E5G12     30.03S
LAMONI         PTCLDY    69  64  84 SE3       30.05R
RED OAK *      CLOUDY    72  66  83 E5        30.01R
SHENANDOAH *   CLOUDY    72  66  83 E8        30.01R
$$

IAZ047>049-059>061-072>074-084-210500-
   CENTRAL IOWA

CITY           SKY/WX    TMP DP  RH WIND       PRES   REMARKS
AMES           CLOUDY    71  71 100 SE6       30.03R
ANKENY *       CLOUDY    72  68  88 S5        30.04R
BOONE *        CLOUDY    70  68  94 S5        30.03R
CHARITON *     CLOUDY    68  66  94 SE3       30.04S
DES MOINES     CLOUDY    73  67  81 S5        30.03R
GRINNELL*      CLEAR     67  65  90 CALM      30.06R
KNOXVILLE *    CLOUDY    70  66  88 SW7       30.03R
MARSHALLTOWN   CLEAR     69  67  93 E3        30.03R
NEWTON *       PTCLDY    66  64  94 SE6       30.05R
PELLA *        PTCLDY    71  66  85 CALM      30.05R
PERRY *        CLOUDY    70  69  97 S3        30.03S
$$

IAZ004>006-015-016-023>025-035-036-210500-
   NORTH CENTRAL IOWA

CITY           SKY/WX    TMP DP  RH WIND       PRES   REMARKS
ALGONA *       CLEAR     73  70  88 E6        30.02S
CLARION *      PTCLDY    70  70 100 SE6       30.03R
ESTHERVILLE    PTCLDY    69  69 100 N7        30.03R
FORT DODGE *   PTCLDY    72  68  88 S6        30.02S
MASON CITY     CLOUDY    69  67  93 S6        30.05R
FOREST CITY *    N/A     68  66  94 CALM      30.04R
WEBSTER CITY * PTCLDY    72  70  94 SE7       30.01R
IOWA FALLS *   CLOUDY    70  67  92 SE5       30.05R
$$

IAZ007>011-017>019-026>030-037>042-050>054-066-210500-
   NORTHEAST IOWA

CITY           SKY/WX    TMP DP  RH WIND       PRES   REMARKS
CEDAR RAPIDS   CLEAR     68  68 100 CALM      30.03R
CHARLES CITY * PTCLDY    68  68 100 SE5       30.04R
CLINTON *      CLEAR     68  67  96 E5        30.03R
DECORAH *      CLEAR     68  66  94 S5        30.04S
DUBUQUE        CLEAR     67  65  93 NE6       30.05R
MONTICELLO *   CLEAR     64  63  94 CALM      30.04R FOG
OELWEIN *      PTCLDY    66  66 100 NE6       30.05R
WATERLOO       MOCLDY    65  64  97 CALM      30.03R
$$

IAZ064-065-067-068-078-210500-
   EAST CENTRAL IOWA

CITY           SKY/WX    TMP DP  RH WIND       PRES   REMARKS
DAVENPORT      CLEAR     69  67  93 E3        30.04R
IOWA CITY      PTCLDY    73  69  87 NE3       30.03R
MUSCATINE *    CLEAR     68  64  88 CALM      30.03R
QUAD CITIES    CLEAR     70  67  90 CALM      30.01R
$$

IAZ062-063-075>077-085>089-095>099-210500-
   SOUTHEAST IOWA

CITY           SKY/WX    TMP DP  RH WIND       PRES   REMARKS
BURLINGTON     CLEAR     71  68  90 SW6       30.03R
FAIRFIELD *    MOCLDY    70  66  88 CALM      30.04R
FORT MADISON * CLEAR     72  68  88 CALM      30.05R
KEOKUK *       PTCLDY    70  68  94 CALM      30.03S
OSKALOOSA *      N/A     65  64  96 CALM      30.05R
OTTUMWA        MOCLDY    70  67  90 CALM      30.04R
$$

ABBREVIATIONS USED IN REMARKS
   TC - TEMPERATURES IN CELSIUS
  WCI - WIND CHILL INDEX
   HX - HEAT INDEX
  VSB - VISIBILITY
$$





USA.gov is the U.S. government's official web portal to all federal, state and local government web resources and services.